,,Stat6,,Stat2,,Stat8,,Stat9,,Stat10,,Wind1,,Wind1,
time,status,PA1M_AVG,status,PR1M_SUM,status,RH1M_AVG,status,SR1M_AVG,status,TA1M_AVG,status,W1dAve1m,status,W1sAve1m,
2009-02-14, 00:00:00,VALID,917.87,VALID,0,VALID,97.0044,VALID,-0.0169808,VALID,19.0901,VALID,38,VALID,0,
2009-02-14, 00:01:00,VALID,917.856,VALID,0,VALID,96.8785,VALID,-0.0509425,VALID,19.0933,VALID,38,VALID,0,
2009-02-14, 00:02:00,VALID,917.864,VALID,0,VALID,96.7437,VALID,-0.0339617,VALID,19.0347,VALID,38,VALID,0,
2009-02-14, 00:03:00,VALID,917.86,VALID,0,VALID,96.7475,VALID,0,VALID,18.9466,VALID,38,VALID,0.0989583,
2009-02-14, 00:04:00,VALID,917.853,VALID,0,VALID,96.9497,VALID,-0.0169808,VALID,18.8431,VALID,38,VALID,0,
2009-02-14, 00:05:00,VALID,917.827,VALID,0,VALID,97.3172,VALID,-0.0169808,VALID,18.7622,VALID,38,VALID,0,
2009-02-14, 00:06:00,VALID,917.822,VALID,0,VALID,97.8767,VALID,0,VALID,18.7358,VALID,38,VALID,0,
2009-02-14, 00:07:00,VALID,917.816,VALID,0,VALID,98.2086,VALID,0,VALID,18.7815,VALID,38,VALID,0,
2009-02-14, 00:08:00,VALID,917.812,VALID,0,VALID,98.3256,VALID,0,VALID,18.8428,VALID,38,VALID,0,
2009-02-14, 00:09:00,VALID,917.787,VALID,0,VALID,98.2327,VALID,0,VALID,18.9112,VALID,38,VALID,0,
2009-02-14, 00:10:00,VALID,917.741,VALID,0,VALID,97.9708,VALID,-0.0169808,VALID,18.9571,VALID,38,VALID,0,
2009-02-14, 00:11:00,VALID,917.718,VALID,0,VALID,97.7533,VALID,-0.0169808,VALID,18.9726,VALID,38,VALID,0,
2009-02-14, 00:12:00,VALID,917.715,VALID,0,VALID,97.4698,VALID,0,VALID,18.9953,VALID,38,VALID,0,
2009-02-14, 00:13:00,VALID,917.706,VALID,0,VALID,97.2879,VALID,0,VALID,19.0148,VALID,38,VALID,0,
2009-02-14, 00:14:00,VALID,917.673,VALID,0,VALID,97.0133,VALID,0,VALID,19.0145,VALID,38,VALID,0,
2009-02-14, 00:15:00,VALID,917.639,VALID,0,VALID,96.7895,VALID,-0.0339617,VALID,18.9728,VALID,38,VALID,0,
2009-02-14, 00:16:00,VALID,917.623,VALID,0,VALID,96.9446,VALID,0,VALID,18.9534,VALID,38,VALID,0,
2009-02-14, 00:17:00,VALID,917.599,VALID,0,VALID,97.0107,VALID,-0.0169808,VALID,18.9726,VALID,38,VALID,0,
2009-02-14, 00:18:00,VALID,917.586,VALID,0,VALID,97.0094,VALID,-0.0169808,VALID,19.022,VALID,38,VALID,0,
2009-02-14, 00:19:00,VALID,917.571,VALID,0,VALID,96.9713,VALID,0,VALID,19.047,VALID,38,VALID,0,
2009-02-14, 00:20:00,VALID,917.559,VALID,0,VALID,96.8187,VALID,0,VALID,19.0894,VALID,38,VALID,0,
2009-02-14, 00:21:00,VALID,917.561,VALID,0,VALID,96.4855,VALID,0.0169808,VALID,19.0724,VALID,38,VALID,0,
2009-02-14, 00:22:00,VALID,917.552,VALID,0,VALID,96.2503,VALID,0.0339617,VALID,19.0342,VALID,38,VALID,0,
2009-02-14, 00:23:00,VALID,917.532,VALID,0,VALID,96.3088,VALID,-0.0679233,VALID,18.9868,VALID,38,VALID,0,
2009-02-14, 00:24:00,VALID,917.486,VALID,0,VALID,96.3393,VALID,-0.101885,VALID,18.9189,VALID,38,VALID,0,
2009-02-14, 00:25:00,VALID,917.458,VALID,0,VALID,96.4665,VALID,-0.118866,VALID,18.8148,VALID,38,VALID,0,
2009-02-14, 00:26:00,VALID,917.434,VALID,0,VALID,96.8721,VALID,-0.135847,VALID,18.7375,VALID,38,VALID,0,
2009-02-14, 00:27:00,VALID,917.43,VALID,0,VALID,97.2409,VALID,-0.118866,VALID,18.6689,VALID,38,VALID,0,
2009-02-14, 00:28:00,VALID,917.435,VALID,0,VALID,97.733,VALID,-0.101885,VALID,18.7015,VALID,38,VALID,0,
2009-02-14, 00:29:00,VALID,917.436,VALID,0,VALID,97.9008,VALID,-0.101885,VALID,18.7534,VALID,38,VALID,0,
2009-02-14, 00:30:00,VALID,917.423,VALID,0,VALID,97.6872,VALID,-0.118866,VALID,18.8053,VALID,38,VALID,0,
2009-02-14, 00:31:00,VALID,917.395,VALID,0,VALID,97.4278,VALID,-0.0509425,VALID,18.8086,VALID,38,VALID,0,
2009-02-14, 00:32:00,VALID,917.365,VALID,0,VALID,97.4265,VALID,-0.0849042,VALID,18.8053,VALID,38,VALID,0,
2009-02-14, 00:33:00,VALID,917.358,VALID,0,VALID,97.2193,VALID,-0.101885,VALID,18.7826,VALID,38,VALID,0,
2009-02-14, 00:34:00,VALID,917.363,VALID,0,VALID,97.4062,VALID,-0.118866,VALID,18.7502,VALID,38,VALID,0,
2009-02-14, 00:35:00,VALID,917.369,VALID,0,VALID,97.5308,VALID,-0.152827,VALID,18.7632,VALID,38,VALID,0,
2009-02-14, 00:36:00,VALID,917.367,VALID,0,VALID,97.6338,VALID,-0.101885,VALID,18.7664,VALID,38,VALID,0,
2009-02-14, 00:37:00,VALID,917.371,VALID,0,VALID,97.6885,VALID,-0.101885,VALID,18.7961,VALID,38,VALID,0,
2009-02-14, 00:38:00,VALID,917.384,VALID,0,VALID,97.5944,VALID,-0.0509425,VALID,18.8012,VALID,38,VALID,0,
2009-02-14, 00:39:00,VALID,917.372,VALID,0,VALID,97.2599,VALID,0,VALID,18.7418,VALID,38,VALID,0,
2009-02-14, 00:40:00,VALID,917.353,VALID,0,VALID,97.658,VALID,-0.0339617,VALID,18.7488,VALID,38,VALID,0,
2009-02-14, 00:41:00,VALID,917.348,VALID,0,VALID,97.822,VALID,0.0169808,VALID,18.7942,VALID,38,VALID,0,
2009-02-14, 00:42:00,VALID,917.344,VALID,0,VALID,97.7521,VALID,-0.0509425,VALID,18.8137,VALID,38,VALID,0,
2009-02-14, 00:43:00,VALID,917.361,VALID,0,VALID,97.883,VALID,-0.0339617,VALID,18.8558,VALID,38,VALID,0,
2009-02-14, 00:44:00,VALID,917.359,VALID,0,VALID,97.8538,VALID,0,VALID,18.9207,VALID,38,VALID,0,
2009-02-14, 00:45:00,VALID,917.367,VALID,0,VALID,97.7241,VALID,0,VALID,18.9823,VALID,38,VALID,0,
2009-02-14, 00:46:00,VALID,917.344,VALID,0,VALID,97.5461,VALID,0.0169808,VALID,19.034,VALID,38,VALID,0,
2009-02-14, 00:47:00,VALID,917.337,VALID,0,VALID,97.3642,VALID,0,VALID,19.0727,VALID,38,VALID,0,
2009-02-14, 00:48:00,VALID,917.315,VALID,0,VALID,97.1836,VALID,-0.0339617,VALID,19.1251,VALID,38,VALID,0,
2009-02-14, 00:49:00,VALID,917.318,VALID,0,VALID,96.9357,VALID,-0.0169808,VALID,19.138,VALID,38,VALID,0,
2009-02-14, 00:50:00,VALID,917.326,VALID,0,VALID,96.8632,VALID,-0.0339617,VALID,19.1672,VALID,38,VALID,0,
2009-02-14, 00:51:00,VALID,917.331,VALID,0,VALID,96.8022,VALID,0,VALID,19.1899,VALID,38,VALID,0,
2009-02-14, 00:52:00,VALID,917.303,VALID,0,VALID,96.5618,VALID,0.0169808,VALID,19.1962,VALID,38,VALID,0,
2009-02-14, 00:53:00,VALID,917.267,VALID,0,VALID,96.4283,VALID,-0.0509425,VALID,19.1964,VALID,38,VALID,0,
2009-02-14, 00:54:00,VALID,917.246,VALID,0,VALID,96.3062,VALID,0,VALID,19.1737,VALID,38,VALID,0,
2009-02-14, 00:55:00,VALID,917.255,VALID,0,VALID,96.2198,VALID,-0.0509425,VALID,19.164,VALID,38,VALID,0,
2009-02-14, 00:56:00,VALID,917.26,VALID,0,VALID,96.1409,VALID,-0.0509425,VALID,19.1283,VALID,38,VALID,0,
2009-02-14, 00:57:00,VALID,917.254,VALID,0,VALID,96.1587,VALID,-0.0509425,VALID,19.0991,VALID,38,VALID,0,
2009-02-14, 00:58:00,VALID,917.225,VALID,0,VALID,96.1219,VALID,-0.0339617,VALID,19.0864,VALID,38,VALID,0,
2009-02-14, 00:59:00,VALID,917.204,VALID,0,VALID,96.5567,VALID,-0.0339617,VALID,19.1123,VALID,38,VALID,0,
2009-02-14, 01:00:00,VALID,917.205,VALID,0,VALID,96.7297,VALID,-0.0169808,VALID,19.1475,VALID,38,VALID,0,
2009-02-14, 01:01:00,VALID,917.209,VALID,0,VALID,96.4296,VALID,0,VALID,19.1413,VALID,38,VALID,0,
2009-02-14, 01:02:00,VALID,917.207,VALID,0,VALID,95.7734,VALID,-0.0679233,VALID,19.041,VALID,38,VALID,0,
2009-02-14, 01:03:00,VALID,917.207,VALID,0,VALID,95.6743,VALID,0,VALID,18.9856,VALID,38,VALID,0,
2009-02-14, 01:04:00,VALID,917.18,VALID,0,VALID,95.5789,VALID,0,VALID,18.8523,VALID,38,VALID,0,
2009-02-14, 01:05:00,VALID,917.174,VALID,0,VALID,96.3062,VALID,0,VALID,18.7877,VALID,38,VALID,0,
2009-02-14, 01:06:00,VALID,917.16,VALID,0,VALID,97.0501,VALID,-0.0509425,VALID,18.8072,VALID,38,VALID,0,
2009-02-14, 01:07:00,VALID,917.154,VALID,0,VALID,97.2994,VALID,-0.0339617,VALID,18.8104,VALID,38,VALID,0,
2009-02-14, 01:08:00,VALID,917.141,VALID,0,VALID,97.6224,VALID,-0.0169808,VALID,18.8331,VALID,38,VALID,0,
2009-02-14, 01:09:00,VALID,917.14,VALID,0,VALID,97.8144,VALID,-0.0169808,VALID,18.8398,VALID,38,VALID,0,
2009-02-14, 01:10:00,VALID,917.118,VALID,0,VALID,97.8589,VALID,-0.0339617,VALID,18.8396,VALID,38,VALID,0,
2009-02-14, 01:11:00,VALID,917.111,VALID,0,VALID,97.8042,VALID,-0.0679233,VALID,18.8526,VALID,37,VALID,0,
2009-02-14, 01:12:00,VALID,917.072,VALID,0,VALID,97.766,VALID,-0.0169808,VALID,18.8558,VALID,24,VALID,0.0746094,
2009-02-14, 01:13:00,VALID,917.029,VALID,0,VALID,97.9199,VALID,-0.0339617,VALID,18.9077,VALID,341,VALID,0,
2009-02-14, 01:14:00,VALID,917.007,VALID,0,VALID,97.3579,VALID,-0.0339617,VALID,18.9337,VALID,333,VALID,0,
2009-02-14, 01:15:00,VALID,916.99,VALID,0,VALID,97.5397,VALID,-0.0169808,VALID,18.9399,VALID,333,VALID,0,
2009-02-14, 01:16:00,VALID,916.993,VALID,0,VALID,96.9573,VALID,-0.0509425,VALID,18.9205,VALID,333,VALID,0,
2009-02-14, 01:17:00,VALID,916.983,VALID,0,VALID,96.9204,VALID,-0.0169808,VALID,18.8558,VALID,333,VALID,0,
2009-02-14, 01:18:00,VALID,916.99,VALID,0,VALID,97.3998,VALID,0,VALID,18.8815,VALID,333,VALID,0,
2009-02-14, 01:19:00,VALID,917.005,VALID,0,VALID,97.2447,VALID,-0.0509425,VALID,18.8943,VALID,333,VALID,0,
2009-02-14, 01:20:00,VALID,916.992,VALID,0,VALID,97.1226,VALID,0,VALID,18.9077,VALID,333,VALID,0,
2009-02-14, 01:21:00,VALID,916.992,VALID,0,VALID,96.9764,VALID,0,VALID,18.914,VALID,333,VALID,0,
2009-02-14, 01:22:00,VALID,916.977,VALID,0,VALID,96.5733,VALID,-0.0169808,VALID,18.8811,VALID,333,VALID,0,
2009-02-14, 01:23:00,VALID,916.987,VALID,0,VALID,96.8225,VALID,-0.0849042,VALID,18.867,VALID,333,VALID,0,
2009-02-14, 01:24:00,VALID,916.973,VALID,0,VALID,96.9904,VALID,-0.135847,VALID,18.8603,VALID,333,VALID,0,
2009-02-14, 01:25:00,VALID,916.96,VALID,0,VALID,96.9115,VALID,-0.169808,VALID,18.8378,VALID,333,VALID,0,
2009-02-14, 01:26:00,VALID,916.948,VALID,0,VALID,97.1137,VALID,-0.118866,VALID,18.838,VALID,333,VALID,0,
2009-02-14, 01:27:00,VALID,916.955,VALID,0,VALID,97.3172,VALID,-0.152827,VALID,18.8345,VALID,333,VALID,0,
2009-02-14, 01:28:00,VALID,916.962,VALID,0,VALID,97.4494,VALID,-0.118866,VALID,18.8475,VALID,333,VALID,0,
2009-02-14, 01:29:00,VALID,916.949,VALID,0,VALID,97.3324,VALID,-0.101885,VALID,18.8443,VALID,333,VALID,0,
2009-02-14, 01:30:00,VALID,916.949,VALID,0,VALID,97.2917,VALID,-0.101885,VALID,18.8248,VALID,333,VALID,0,
2009-02-14, 01:31:00,VALID,916.913,VALID,0,VALID,97.0908,VALID,-0.101885,VALID,18.7981,VALID,333,VALID,0,
2009-02-14, 01:32:00,VALID,916.906,VALID,0,VALID,97.0857,VALID,-0.118866,VALID,18.7337,VALID,333,VALID,0,
2009-02-14, 01:33:00,VALID,916.89,VALID,0,VALID,97.3413,VALID,-0.152827,VALID,18.6367,VALID,349,VALID,0,
2009-02-14, 01:34:00,VALID,916.88,VALID,0,VALID,97.424,VALID,-0.169808,VALID,18.4974,VALID,9,VALID,0,
2009-02-14, 01:35:00,VALID,916.887,VALID,0,VALID,98.337,VALID,-0.135847,VALID,18.4323,VALID,9,VALID,0,
2009-02-14, 01:36:00,VALID,916.886,VALID,0,VALID,99.189,VALID,-0.135847,VALID,18.4742,VALID,9,VALID,0,
2009-02-14, 01:37:00,VALID,916.883,VALID,0,VALID,99.2971,VALID,-0.101885,VALID,18.4965,VALID,9,VALID,0,
2009-02-14, 01:38:00,VALID,916.857,VALID,0,VALID,99.3556,VALID,-0.0679233,VALID,18.5294,VALID,9,VALID,0,
2009-02-14, 01:39:00,VALID,916.845,VALID,0,VALID,99.0555,VALID,-0.0849042,VALID,18.5099,VALID,9,VALID,0,
2009-02-14, 01:40:00,VALID,916.864,VALID,0,VALID,98.9448,VALID,-0.0679233,VALID,18.4872,VALID,9,VALID,0,
2009-02-14, 01:41:00,VALID,916.868,VALID,0,VALID,99.2487,VALID,-0.101885,VALID,18.4939,VALID,9,VALID,0,
2009-02-14, 01:42:00,VALID,916.872,VALID,0,VALID,99.2475,VALID,-0.101885,VALID,18.5102,VALID,10,VALID,0,
2009-02-14, 01:43:00,VALID,916.852,VALID,0,VALID,99.2119,VALID,-0.0849042,VALID,18.5164,VALID,10,VALID,0,
2009-02-14, 01:44:00,VALID,916.838,VALID,0,VALID,99.175,VALID,-0.0849042,VALID,18.5065,VALID,10,VALID,0,
2009-02-14, 01:45:00,VALID,916.82,VALID,0,VALID,99.2411,VALID,-0.0849042,VALID,18.5097,VALID,10,VALID,0,
2009-02-14, 01:46:00,VALID,916.827,VALID,0,VALID,99.4268,VALID,-0.101885,VALID,18.5294,VALID,10,VALID,0.25686,
2009-02-14, 01:47:00,VALID,916.822,VALID,0,VALID,99.4306,VALID,-0.0679233,VALID,18.5553,VALID,11,VALID,0,
2009-02-14, 01:48:00,VALID,916.818,VALID,0,VALID,99.5069,VALID,-0.0849042,VALID,18.5776,VALID,11,VALID,0,
2009-02-14, 01:49:00,VALID,916.8,VALID,0,VALID,99.484,VALID,-0.101885,VALID,18.6427,VALID,11,VALID,0,
2009-02-14, 01:50:00,VALID,916.803,VALID,0,VALID,99.3199,VALID,-0.0849042,VALID,18.6781,VALID,11,VALID,0,
2009-02-14, 01:51:00,VALID,916.804,VALID,0,VALID,98.9321,VALID,-0.101885,VALID,18.6652,VALID,11,VALID,0,
2009-02-14, 01:52:00,VALID,916.795,VALID,0,VALID,98.7274,VALID,-0.0509425,VALID,18.6462,VALID,11,VALID,0,
2009-02-14, 01:53:00,VALID,916.798,VALID,0,VALID,98.6574,VALID,-0.0169808,VALID,18.622,VALID,11,VALID,0,
2009-02-14, 01:54:00,VALID,916.804,VALID,0,VALID,98.7287,VALID,0.0169808,VALID,18.622,VALID,11,VALID,0,
2009-02-14, 01:55:00,VALID,916.784,VALID,0,VALID,98.5875,VALID,0,VALID,18.5961,VALID,11,VALID,0,
2009-02-14, 01:56:00,VALID,916.792,VALID,0,VALID,98.6091,VALID,0.0169808,VALID,18.5639,VALID,11,VALID,0,
2009-02-14, 01:57:00,VALID,916.788,VALID,0,VALID,98.7795,VALID,0,VALID,18.518,VALID,11,VALID,0,
2009-02-14, 01:58:00,VALID,916.765,VALID,0,VALID,98.8037,VALID,0.0169808,VALID,18.4918,VALID,11,VALID,0,
2009-02-14, 01:59:00,VALID,916.73,VALID,0,VALID,98.8151,VALID,0,VALID,18.4467,VALID,11,VALID,0,
2009-02-14, 02:00:00,VALID,916.714,VALID,0,VALID,99.0898,VALID,0.0509425,VALID,18.4015,VALID,11,VALID,0,
2009-02-14, 02:01:00,VALID,916.703,VALID,0,VALID,99.6684,VALID,0.0339617,VALID,18.4175,VALID,11,VALID,0,
2009-02-14, 02:02:00,VALID,916.725,VALID,0,VALID,99.8121,VALID,0.0169808,VALID,18.4564,VALID,11,VALID,0,
2009-02-14, 02:03:00,VALID,916.729,VALID,0,VALID,99.7599,VALID,0.0169808,VALID,18.4789,VALID,11,VALID,0,
2009-02-14, 02:04:00,VALID,916.722,VALID,0,VALID,99.7752,VALID,0,VALID,18.5118,VALID,11,VALID,0,
2009-02-14, 02:05:00,VALID,916.717,VALID,0,VALID,99.6188,VALID,0.0169808,VALID,18.5176,VALID,11,VALID,0,
2009-02-14, 02:06:00,VALID,916.734,VALID,0,VALID,99.6556,VALID,0.0679233,VALID,18.5305,VALID,11,VALID,0,
2009-02-14, 02:07:00,VALID,916.747,VALID,0,VALID,99.6111,VALID,0.0169808,VALID,18.5599,VALID,11,VALID,0,
2009-02-14, 02:08:00,VALID,916.731,VALID,0,VALID,99.6506,VALID,0.0169808,VALID,18.6084,VALID,11,VALID,0,
2009-02-14, 02:09:00,VALID,916.73,VALID,0,VALID,99.615,VALID,0.0509425,VALID,18.683,VALID,11,VALID,0,
2009-02-14, 02:10:00,VALID,916.725,VALID,0,VALID,99.4382,VALID,0.0679233,VALID,18.7411,VALID,11,VALID,0,
2009-02-14, 02:11:00,VALID,916.703,VALID,0,VALID,99.0847,VALID,0.0339617,VALID,18.7573,VALID,11,VALID,0,
2009-02-14, 02:12:00,VALID,916.666,VALID,0,VALID,98.866,VALID,0.0169808,VALID,18.7444,VALID,11,VALID,0,
2009-02-14, 02:13:00,VALID,916.646,VALID,0,VALID,98.8545,VALID,0.0679233,VALID,18.7608,VALID,11,VALID,0,
2009-02-14, 02:14:00,VALID,916.636,VALID,0,VALID,98.8215,VALID,0.0679233,VALID,18.7571,VALID,11,VALID,0,
2009-02-14, 02:15:00,VALID,916.63,VALID,0,VALID,98.8571,VALID,0.0169808,VALID,18.7807,VALID,11,VALID,0,
2009-02-14, 02:16:00,VALID,916.621,VALID,0,VALID,98.9258,VALID,0.0679233,VALID,18.8097,VALID,11,VALID,0,
2009-02-14, 02:17:00,VALID,916.6,VALID,0,VALID,98.8139,VALID,0.0339617,VALID,18.8551,VALID,11,VALID,0,
2009-02-14, 02:18:00,VALID,916.585,VALID,0,VALID,98.4629,VALID,0.0509425,VALID,18.8611,VALID,11,VALID,0,
2009-02-14, 02:19:00,VALID,916.581,VALID,0,VALID,98.1602,VALID,0.0339617,VALID,18.8776,VALID,11,VALID,0,
2009-02-14, 02:20:00,VALID,916.564,VALID,0,VALID,98.0878,VALID,0.0339617,VALID,18.9107,VALID,11,VALID,0,
2009-02-14, 02:21:00,VALID,916.548,VALID,0,VALID,98.0623,VALID,0.0339617,VALID,18.9227,VALID,11,VALID,0,
2009-02-14, 02:22:00,VALID,916.545,VALID,0,VALID,97.7495,VALID,0.0509425,VALID,18.9459,VALID,11,VALID,0,
2009-02-14, 02:23:00,VALID,916.545,VALID,0,VALID,97.4227,VALID,-0.0169808,VALID,18.9175,VALID,11,VALID,0,
2009-02-14, 02:24:00,VALID,916.538,VALID,0,VALID,97.5308,VALID,-0.0339617,VALID,18.9277,VALID,11,VALID,0,
2009-02-14, 02:25:00,VALID,916.527,VALID,0,VALID,97.6313,VALID,-0.0169808,VALID,18.9499,VALID,11,VALID,0,
2009-02-14, 02:26:00,VALID,916.53,VALID,0,VALID,97.4914,VALID,-0.0849042,VALID,18.9766,VALID,11,VALID,0,
2009-02-14, 02:27:00,VALID,916.507,VALID,0,VALID,97.41,VALID,-0.0679233,VALID,18.996,VALID,11,VALID,0,
2009-02-14, 02:28:00,VALID,916.483,VALID,0,VALID,97.396,VALID,-0.0679233,VALID,19.0088,VALID,11,VALID,0,
2009-02-14, 02:29:00,VALID,916.467,VALID,0,VALID,97.3502,VALID,-0.0679233,VALID,19.0315,VALID,11,VALID,0,
2009-02-14, 02:30:00,VALID,916.465,VALID,0,VALID,97.2269,VALID,-0.0849042,VALID,19.0282,VALID,11,VALID,0,
2009-02-14, 02:31:00,VALID,916.462,VALID,0,VALID,97.1493,VALID,-0.0849042,VALID,18.9898,VALID,11,VALID,0,
2009-02-14, 02:32:00,VALID,916.453,VALID,0,VALID,97.2561,VALID,-0.0849042,VALID,18.9311,VALID,11,VALID,0,
2009-02-14, 02:33:00,VALID,916.455,VALID,0,VALID,97.5079,VALID,-0.0849042,VALID,18.8827,VALID,11,VALID,0,
2009-02-14, 02:34:00,VALID,916.445,VALID,0,VALID,97.7546,VALID,-0.101885,VALID,18.8503,VALID,11,VALID,0,
2009-02-14, 02:35:00,VALID,916.446,VALID,0,VALID,97.9034,VALID,-0.0849042,VALID,18.8376,VALID,11,VALID,0,
2009-02-14, 02:36:00,VALID,916.436,VALID,0,VALID,97.9644,VALID,-0.101885,VALID,18.8241,VALID,11,VALID,0,
2009-02-14, 02:37:00,VALID,916.442,VALID,0,VALID,97.9008,VALID,-0.0679233,VALID,18.8081,VALID,11,VALID,0,
2009-02-14, 02:38:00,VALID,916.424,VALID,0,VALID,98.1259,VALID,-0.0679233,VALID,18.8016,VALID,10,VALID,0,
2009-02-14, 02:39:00,VALID,916.421,VALID,0,VALID,98.1857,VALID,-0.0169808,VALID,18.7782,VALID,10,VALID,0,
2009-02-14, 02:40:00,VALID,916.401,VALID,0,VALID,98.5112,VALID,-0.0849042,VALID,18.7919,VALID,10,VALID,0,
2009-02-14, 02:41:00,VALID,916.396,VALID,0,VALID,98.5939,VALID,-0.101885,VALID,18.8181,VALID,10,VALID,0,
2009-02-14, 02:42:00,VALID,916.393,VALID,0,VALID,98.5405,VALID,-0.0679233,VALID,18.8269,VALID,10,VALID,0,
2009-02-14, 02:43:00,VALID,916.385,VALID,0,VALID,98.5722,VALID,-0.101885,VALID,18.8338,VALID,10,VALID,0,
2009-02-14, 02:44:00,VALID,916.393,VALID,0,VALID,98.5926,VALID,-0.0849042,VALID,18.85,VALID,10,VALID,0,
2009-02-14, 02:45:00,VALID,916.398,VALID,0,VALID,98.6409,VALID,-0.0849042,VALID,18.8433,VALID,12,VALID,0,
2009-02-14, 02:46:00,VALID,916.408,VALID,0,VALID,98.6371,VALID,-0.0849042,VALID,18.8535,VALID,16,VALID,0,
2009-02-14, 02:47:00,VALID,916.398,VALID,0,VALID,98.6333,VALID,-0.101885,VALID,18.8535,VALID,18,VALID,0,
2009-02-14, 02:48:00,VALID,916.394,VALID,0,VALID,98.5239,VALID,-0.101885,VALID,18.8535,VALID,18,VALID,0,
2009-02-14, 02:49:00,VALID,916.394,VALID,0,VALID,98.482,VALID,-0.0509425,VALID,18.8341,VALID,18,VALID,0,
2009-02-14, 02:50:00,VALID,916.379,VALID,0,VALID,98.4375,VALID,-0.0849042,VALID,18.8276,VALID,20,VALID,0.0342988,
2009-02-14, 02:51:00,VALID,916.357,VALID,0,VALID,98.412,VALID,-0.0679233,VALID,18.7822,VALID,36,VALID,0.00613839,
2009-02-14, 02:52:00,VALID,916.345,VALID,0,VALID,98.6676,VALID,-0.0849042,VALID,18.7627,VALID,47,VALID,0,
2009-02-14, 02:53:00,VALID,916.355,VALID,0,VALID,98.8177,VALID,-0.0169808,VALID,18.7909,VALID,47,VALID,0,
2009-02-14, 02:54:00,VALID,916.384,VALID,0,VALID,98.7566,VALID,0.0169808,VALID,18.8137,VALID,47,VALID,0,
2009-02-14, 02:55:00,VALID,916.404,VALID,0,VALID,98.7782,VALID,0.0339617,VALID,18.8361,VALID,47,VALID,0,
2009-02-14, 02:56:00,VALID,916.411,VALID,0,VALID,98.7337,VALID,0.0509425,VALID,18.8716,VALID,47,VALID,0,
2009-02-14, 02:57:00,VALID,916.397,VALID,0,VALID,98.6142,VALID,0.0169808,VALID,18.8945,VALID,46,VALID,0,
2009-02-14, 02:58:00,VALID,916.365,VALID,0,VALID,98.4667,VALID,0.0339617,VALID,18.9267,VALID,46,VALID,0,
2009-02-14, 02:59:00,VALID,916.32,VALID,0,VALID,98.3179,VALID,0.0169808,VALID,18.9524,VALID,38,VALID,0,
2009-02-14, 03:00:00,VALID,916.311,VALID,0,VALID,98.0865,VALID,0.0339617,VALID,18.9716,VALID,37,VALID,0,
2009-02-14, 03:01:00,VALID,916.287,VALID,0,VALID,97.8805,VALID,0.0339617,VALID,18.9846,VALID,37,VALID,0,
2009-02-14, 03:02:00,VALID,916.258,VALID,0,VALID,97.7088,VALID,0.0339617,VALID,18.9879,VALID,37,VALID,0,
2009-02-14, 03:03:00,VALID,916.218,VALID,0,VALID,97.6783,VALID,0.0339617,VALID,18.9881,VALID,37,VALID,0,
2009-02-14, 03:04:00,VALID,916.213,VALID,0,VALID,97.6732,VALID,0.0169808,VALID,18.9784,VALID,37,VALID,0,
2009-02-14, 03:05:00,VALID,916.213,VALID,0,VALID,97.7355,VALID,0.0169808,VALID,18.9689,VALID,37,VALID,0,
2009-02-14, 03:06:00,VALID,916.183,VALID,0,VALID,97.7966,VALID,0.0169808,VALID,18.9818,VALID,37,VALID,0,
2009-02-14, 03:07:00,VALID,916.179,VALID,0,VALID,97.8512,VALID,0,VALID,19.0016,VALID,37,VALID,0,
2009-02-14, 03:08:00,VALID,916.162,VALID,0,VALID,97.7368,VALID,-0.0679233,VALID,19.0222,VALID,37,VALID,0,
2009-02-14, 03:09:00,VALID,916.176,VALID,0,VALID,97.7343,VALID,-0.101885,VALID,19.0482,VALID,37,VALID,0,
2009-02-14, 03:10:00,VALID,916.152,VALID,0,VALID,97.6541,VALID,-0.101885,VALID,19.0774,VALID,37,VALID,0,
2009-02-14, 03:11:00,VALID,916.147,VALID,0,VALID,97.4825,VALID,-0.135847,VALID,19.0973,VALID,37,VALID,0,
2009-02-14, 03:12:00,VALID,916.133,VALID,0,VALID,97.3782,VALID,-0.101885,VALID,19.0936,VALID,37,VALID,0,
2009-02-14, 03:13:00,VALID,916.128,VALID,0,VALID,97.3235,VALID,-0.0679233,VALID,19.0769,VALID,37,VALID,0,
2009-02-14, 03:14:00,VALID,916.143,VALID,0,VALID,97.2587,VALID,-0.0849042,VALID,19.0512,VALID,37,VALID,0,
2009-02-14, 03:15:00,VALID,916.168,VALID,0,VALID,97.4609,VALID,-0.101885,VALID,19.0581,VALID,37,VALID,0,
2009-02-14, 03:16:00,VALID,916.168,VALID,0,VALID,97.5232,VALID,-0.101885,VALID,19.0679,VALID,37,VALID,0,
2009-02-14, 03:17:00,VALID,916.152,VALID,0,VALID,97.5766,VALID,-0.101885,VALID,19.0876,VALID,37,VALID,0,
2009-02-14, 03:18:00,VALID,916.131,VALID,0,VALID,97.6427,VALID,-0.0849042,VALID,19.123,VALID,37,VALID,0,
2009-02-14, 03:19:00,VALID,916.14,VALID,0,VALID,97.588,VALID,-0.0849042,VALID,19.1752,VALID,37,VALID,0,
2009-02-14, 03:20:00,VALID,916.138,VALID,0,VALID,97.3439,VALID,-0.101885,VALID,19.1782,VALID,37,VALID,0,
2009-02-14, 03:21:00,VALID,916.145,VALID,0,VALID,97.0005,VALID,-0.101885,VALID,19.1425,VALID,37,VALID,0,
2009-02-14, 03:22:00,VALID,916.141,VALID,0,VALID,96.9751,VALID,-0.101885,VALID,19.0869,VALID,37,VALID,0,
2009-02-14, 03:23:00,VALID,916.169,VALID,0,VALID,97.0183,VALID,-0.0169808,VALID,19.037,VALID,37,VALID,0,
2009-02-14, 03:24:00,VALID,916.171,VALID,0,VALID,97.1277,VALID,0,VALID,19.0148,VALID,37,VALID,0,
2009-02-14, 03:25:00,VALID,916.177,VALID,0,VALID,97.2282,VALID,0,VALID,18.9649,VALID,37,VALID,0,
2009-02-14, 03:26:00,VALID,916.151,VALID,0,VALID,97.5588,VALID,0,VALID,18.9756,VALID,37,VALID,0,
2009-02-14, 03:27:00,VALID,916.128,VALID,0,VALID,97.7495,VALID,-0.0169808,VALID,18.9856,VALID,37,VALID,0,
2009-02-14, 03:28:00,VALID,916.122,VALID,0,VALID,97.6758,VALID,-0.0169808,VALID,18.9694,VALID,37,VALID,0,
2009-02-14, 03:29:00,VALID,916.119,VALID,0,VALID,97.7152,VALID,-0.0169808,VALID,18.9397,VALID,37,VALID,0,
2009-02-14, 03:30:00,VALID,916.133,VALID,0,VALID,97.7355,VALID,0,VALID,18.92,VALID,37,VALID,0,
2009-02-14, 03:31:00,VALID,916.135,VALID,0,VALID,97.6847,VALID,-0.0509425,VALID,18.9045,VALID,37,VALID,0,
2009-02-14, 03:32:00,VALID,916.151,VALID,0,VALID,97.6974,VALID,-0.0339617,VALID,18.885,VALID,37,VALID,0,
2009-02-14, 03:33:00,VALID,916.138,VALID,0,VALID,97.8258,VALID,-0.0169808,VALID,18.8748,VALID,37,VALID,0,
2009-02-14, 03:34:00,VALID,916.128,VALID,0,VALID,98.0344,VALID,-0.0339617,VALID,18.888,VALID,38,VALID,0,
2009-02-14, 03:35:00,VALID,916.108,VALID,0,VALID,97.766,VALID,0,VALID,18.8421,VALID,90,VALID,0,
2009-02-14, 03:36:00,VALID,916.106,VALID,0,VALID,97.8741,VALID,-0.0169808,VALID,18.8039,VALID,106,VALID,0,
2009-02-14, 03:37:00,VALID,916.103,VALID,0,VALID,97.7966,VALID,0.0169808,VALID,18.7455,VALID,106,VALID,0,
2009-02-14, 03:38:00,VALID,916.082,VALID,0,VALID,97.7393,VALID,-0.0339617,VALID,18.6542,VALID,106,VALID,0,
2009-02-14, 03:39:00,VALID,916.043,VALID,0,VALID,98.0878,VALID,-0.0169808,VALID,18.5963,VALID,106,VALID,0,
2009-02-14, 03:40:00,VALID,916.022,VALID,0,VALID,98.5837,VALID,0,VALID,18.5736,VALID,106,VALID,0,
2009-02-14, 03:41:00,VALID,916.03,VALID,0,VALID,98.8749,VALID,-0.0169808,VALID,18.5507,VALID,106,VALID,0,
2009-02-14, 03:42:00,VALID,916.014,VALID,0,VALID,99.0745,VALID,-0.0339617,VALID,18.5442,VALID,106,VALID,0,
2009-02-14, 03:43:00,VALID,916,VALID,0,VALID,99.2144,VALID,0,VALID,18.5312,VALID,106,VALID,0,
2009-02-14, 03:44:00,VALID,915.985,VALID,0,VALID,99.3161,VALID,0.0169808,VALID,18.518,VALID,106,VALID,0,
2009-02-14, 03:45:00,VALID,915.986,VALID,0,VALID,99.2386,VALID,0.0169808,VALID,18.4958,VALID,106,VALID,0,